Location: Unspecified
(0.0000°N, 0.0000°E)
Time: 02:49:03
(UTC+00:00)

STARLINK-1056 - Pass Details

Date: 21 January 2020
Orbit: 546 x 548 km, 53.1° (Epoch: 18 January)

Event Time Altitude Azimuth Distance (km) Brightness Sun altitude
Rises 05:00:55 0° 211° (SSW) 2,711 7.1 -16.5°
Reaches altitude 10° 05:03:09 10° 209° (SSW) 1,815 6.2 -15.9°
Maximum altitude 05:07:16 74° 124° (SE) 568 3.8 -15.0°
Drops below altitude 10° 05:11:21 10° 39° (NE) 1,802 6.5 -14.0°
Sets 05:13:34 0° 37° (NE) 2,691 7.4 -13.5°
